Regional Weather Roundup
Issued by NWS Little Rock, AR

Home | Current Version | Previous Version | Graphics & Text | Print | Product List | Glossary On
Versions: 1 2 3 4 5 6 7 8 9 10 11 12 13 14 15 16 17 18 19 20 21 22 23 24 25 26 27 28 29 30 31 32 33 34 35 36 37 38 39 40 41 42 43 44 45 46 47 48 49 50
000
ASUS44 KLZK 181105
RWRLZK

WEATHER ROUNDUP FOR ARKANSAS
NATIONAL WEATHER SERVICE LITTLE ROCK AR
600 AM CDT THU SEP 18 2014

NOTE: "FAIR" INDICATES FEW OR NO CLOUDS BELOW 12,000 FEET WITH NO
SIGNIFICANT WEATHER AND/OR OBSTRUCTIONS TO VISIBILITY.

ARZ001-003-010-029-181200-
NORTHWEST ARKANSAS

CITY           SKY/WX    TMP DP  RH WIND       PRES   REMARKS
FAYETTEVILLE   CLOUDY    66  64  93 VRB7      29.98R
FORT SMITH     CLOUDY    67  65  93 NE7       29.94R
HARRISON       CLOUDY    62  62 100 S6        29.97F FOG
BENTONVILLE    CLOUDY    66  59  77 N13       30.03R THUNDER
ROGERS         RAIN      66  61  82 N8        30.04R
SILOAM SPGS    CLOUDY    64  57  77 NE10G21   30.00F THUNDER
HIGHFILL       TSTM      65  61  87 N14G21    30.01S
$$

ARZ004-005-016-181200-
NORTH CENTRAL ARKANSAS

CITY           SKY/WX    TMP DP  RH WIND       PRES   REMARKS
BATESVILLE     CLOUDY    61  61 100 NW3       29.95R
FLIPPIN        CLOUDY    63  57  82 CALM      29.97R
MTN HOME       CLOUDY    63  63 100 SE3       29.96R FOG
$$

ARZ040-041-181200-
WEST CENTRAL ARKANSAS

CITY           SKY/WX    TMP DP  RH WIND       PRES   REMARKS
MENA             N/A     70  68  94 CALM      29.92R
MOUNT IDA      CLOUDY    72  70  93 CALM      29.88R FOG
$$

ARZ009-017-025-026-028-181200-
NORTHEAST ARKANSAS

CITY           SKY/WX    TMP DP  RH WIND       PRES   REMARKS
CORNING          N/A     63  63 100 NE7       29.97S FOG
JONESBORO      CLOUDY    64  63  96 NE5       29.94R
NEWPORT        CLOUDY    61  61 100 CALM      29.95S FOG
WALNUT RIDGE   CLOUDY    64  63  94 NE10      29.95S
BLYTHEVILLE    CLOUDY    65  64  97 E5        29.95S
$$

ARZ022-023-033-042-044-181200-
CENTRAL ARKANSAS

CITY           SKY/WX    TMP DP  RH WIND       PRES   REMARKS
LITTLE ROCK    CLOUDY    67  63  87 E7        29.91S FOG
N LITTLE ROCK    N/A     65  65  98 NE6       29.91S
JACKSONVILLE   CLOUDY    65  63  95 NE3       29.92R
SEARCY         CLOUDY    63  62  96 N5        29.94R
HOT SPRINGS    CLOUDY    73  70  90 CALM      29.90R
RUSSELLVILLE   CLOUDY    70  67  90 E6        29.93R
CLINTON        CLOUDY    66  66 100 CALM      29.95R FOG
$$

ARZ036-181200-
EAST ARKANSAS

CITY           SKY/WX    TMP DP  RH WIND       PRES   REMARKS
WEST MEMPHIS   CLOUDY    65  65 100 CALM      29.91F
$$

ARZ050-053-066-070-073-181200-
SOUTHWEST ARKANSAS

CITY           SKY/WX    TMP DP  RH WIND       PRES   REMARKS
ARKADELPHIA    FAIR      73  72  97 NE5       29.89R
CAMDEN         CLOUDY    72  68  88 CALM      29.88S
TEXARKANA      CLOUDY    74  72  93 NE5       29.88R
EL DORADO      CLOUDY    70  69  97 CALM      29.91R
DE QUEEN       CLOUDY    71  68  90 CALM      29.86R
$$

ARZ056-057-069-181200-
SOUTHEAST ARKANSAS

CITY           SKY/WX    TMP DP  RH WIND       PRES   REMARKS
PINE BLUFF     CLOUDY    70  68  93 CALM      29.90R
STUTTGART      CLOUDY    66  64  94 NE6       29.92R
MONTICELLO     CLOUDY    70  68  93 CALM      29.90R

$$





USA.gov is the U.S. government's official web portal to all federal, state and local government web resources and services.